Temp
7 8 8 9 10 11 12 13 14 14 15 13 13 13 13 13 12 12 12 12 12 11 10 10 10 10 9 8 7 7 7 6 5 5 4 3 3 3 4 3 2 2 2 2
8 8 9 10 10 11 12 13 13 14 14 14 14 14 13 13 12 12 12 12 12 11 10 10 10 9 9 8 7 7 6 6 5 5 4 4 3 3 3 3 2 3 2 2
8 9 9 11 11 11 12 12 13 14 14 14 14 13 13 13 13 13 13 12 11 11 10 10 10 10 9 8 7 7 6 6 5 5 4 4 3 3 2 3 2 3 3 2
9 10 11 11 12 12 12 13 13 14 13 13 14 14 14 13 13 13 13 12 11 11 10 10 10 10 9 8 7 7 6 6 5 4 4 4 3 3 3 2 2 2 2 2
10 11 11 12 12 13 13 14 14 14 13 13 13 13 13 14 14 14 13 12 12 10 10 10 10 9 8 8 7 6 6 5 5 4 4 4 3 3 2 2 2 2 2 2
10 11 12 12 13 13 13 14 14 13 13 13 13 13 13 14 14 13 13 12 12 11 11 10 10 9 8 7 7 6 6 5 5 5 4 4 3 3 3 3 2 2 2 2
11 11 12 13 13 14 13 13 13 12 12 13 13 13 13 14 14 13 13 12 11 11 11 10 10 9 8 7 7 6 6 6 5 5 4 4 3 3 3 3 3 2 2 2
11 12 12 13 13 14 14 13 13 12 12 14 14 14 14 14 13 13 12 12 11 10 10 10 9 9 8 7 6 6 6 5 5 4 4 4 4 3 3 3 3 3 2 2
12 12 13 13 14 14 13 13 13 13 14 15 15 14 14 13 13 12 12 11 10 10 10 9 9 8 8 7 6 6 6 5 5 4 4 4 3 3 3 3 3 3 3 3
12 13 14 14 14 14 13 13 13 13 12 12 14 15 15 13 13 13 12 10 11 10 10 9 9 8 8 7 6 6 6 5 5 4 4 4 4 3 3 3 3 2 3 3
11 13 14 14 14 13 13 13 13 13 13 13 13 14 15 13 13 12 12 10 11 11 10 9 9 8 8 7 7 6 6 5 5 4 4 4 3 3 3 3 3 2 2 3
11 12 13 14 14 13 13 13 13 13 13 13 14 14 14 13 12 12 11 11 11 10 10 9 8 8 8 7 7 6 6 5 5 5 4 4 4 4 3 3 2 2 3 3
11 12 13 14 14 13 13 13 13 13 13 13 14 14 13 13 12 12 11 10 10 10 9 9 8 8 8 8 7 7 6 6 6 5 5 4 4 4 3 3 3 2 3 3
12 12 12 14 15 13 13 13 13 13 13 13 13 14 14 12 12 12 11 10 11 11 9 8 8 8 8 8 8 7 7 6 6 5 5 4 4 4 4 4 3 2 2 3
12 11 12 13 14 14 13 13 13 13 13 13 13 13 14 13 12 12 12 10 10 10 9 8 9 8 8 8 8 8 7 6 6 6 5 5 4 4 4 4 3 3 2 3
12 11 12 13 13 14 14 13 13 13 13 13 13 13 13 13 13 13 12 11 10 9 8 8 9 8 9 8 8 8 7 7 7 6 6 5 5 5 4 4 4 4 3 3
11 11 11 12 13 14 14 14 13 13 13 13 13 13 13 13 13 13 12 11 10 10 9 9 9 9 8 9 8 8 8 7 7 7 6 6 6 5 4 4 5 5 5 4
9 11 11 11 12 12 14 14 13 13 13 13 13 13 13 13 13 13 12 12 11 10 9 9 9 9 9 8 8 8 8 8 8 8 7 7 6 6 5 5 5 5 5 5
9 11 11 11 12 12 13 14 13 13 13 13 13 13 13 13 13 13 12 12 11 10 10 9 9 9 9 8 8 9 8 8 8 8 8 7 7 7 6 6 6 5 5 5
9 10 10 11 11 12 13 13 13 13 13 13 13 13 12 12 12 13 12 12 11 11 10 9 9 9 9 9 8 8 9 9 8 8 8 8 7 7 7 7 6 6 6 5
8 9 9 9 11 12 13 13 13 12 12 13 12 12 12 12 12 12 13 12 12 11 10 10 9 10 10 9 8 9 9 9 8 8 8 8 8 7 7 7 7 6 6 6
8 8 9 9 10 11 12 13 13 12 12 12 12 12 12 12 12 12 12 12 12 11 10 10 9 9 10 9 9 9 9 9 8 8 8 8 8 8 8 7 7 7 7 6
2 6 7 9 9 10 11 12 12 11 11 11 12 12 11 11 11 12 12 11 11 11 10 10 9 9 10 10 9 9 9 8 8 8 8 8 8 8 8 8 8 7 7 7
2 2 3 6 6 10 10 10 10 10 11 11 11 11 11 11 11 11 11 11 10 10 10 10 9 9 9 10 10 9 9 8 8 8 8 9 8 8 8 8 8 8 7 7
-2 -1 2 6 7 8 9 10 10 10 10 10 10 10 11 11 11 11 11 11 10 10 10 10 9 9 8 10 10 10 9 9 9 8 9 9 9 8 8 8 7 7 7 7
-3 -2 1 3 3 6 7 7 8 9 10 9 10 10 10 10 11 10 11 10 9 9 10 9 9 9 8 9 10 10 10 9 9 9 9 9 9 9 9 8 8 7 7 7
Height
3099 3102 3096 3099 3101 3108 3110 3108 3106 3105 3105 3109 3108 3107 3108 3110 3109 3108 3107 3106 3105 3102 3099 3099 3099 3097 3096 3094 3093 3090 3086 3083 3080 3077 3072 3067 3065 3062 3059 3054 3050 3046 3045 3045
3095 3084 3091 3097 3102 3104 3105 3105 3103 3102 3102 3103 3102 3101 3103 3104 3102 3101 3100 3100 3100 3096 3094 3096 3095 3094 3092 3091 3090 3087 3085 3082 3079 3076 3072 3068 3065 3062 3058 3055 3051 3047 3044 3044
3078 3078 3090 3093 3095 3097 3099 3100 3101 3100 3100 3100 3099 3097 3098 3097 3096 3096 3096 3094 3094 3092 3093 3092 3091 3090 3088 3088 3087 3085 3083 3080 3079 3076 3072 3067 3065 3061 3058 3054 3051 3047 3045 3044
3072 3081 3083 3086 3087 3092 3091 3095 3096 3097 3098 3097 3097 3090 3093 3093 3091 3089 3090 3090 3089 3088 3090 3088 3087 3087 3086 3085 3085 3083 3081 3079 3078 3076 3072 3069 3065 3061 3057 3054 3050 3048 3046 3044
3054 3070 3074 3076 3080 3085 3086 3090 3091 3092 3094 3094 3095 3093 3088 3088 3085 3085 3086 3086 3085 3084 3086 3085 3084 3084 3083 3083 3082 3082 3080 3078 3077 3075 3073 3069 3065 3061 3056 3053 3051 3049 3046 3045
3059 3067 3068 3070 3075 3078 3083 3085 3087 3090 3090 3087 3089 3090 3085 3083 3082 3082 3084 3083 3082 3082 3083 3082 3081 3081 3081 3081 3081 3080 3078 3077 3076 3075 3074 3071 3066 3062 3056 3054 3052 3050 3048 3047
3054 3054 3060 3065 3069 3072 3076 3079 3083 3086 3085 3081 3083 3082 3077 3078 3079 3080 3082 3082 3079 3080 3079 3079 3079 3079 3079 3080 3079 3078 3077 3077 3075 3075 3073 3071 3068 3063 3060 3057 3054 3052 3050 3048
3044 3047 3047 3053 3056 3063 3067 3075 3075 3079 3079 3075 3069 3071 3073 3074 3075 3078 3079 3081 3079 3078 3077 3077 3077 3077 3078 3078 3078 3077 3076 3076 3075 3076 3073 3072 3070 3066 3063 3061 3058 3056 3053 3051
3034 3033 3044 3047 3053 3059 3062 3066 3073 3073 3071 3068 3067 3069 3069 3068 3071 3075 3077 3077 3076 3076 3075 3075 3076 3077 3077 3077 3077 3076 3076 3075 3075 3076 3074 3073 3071 3069 3067 3065 3062 3059 3057 3056
3025 3033 3033 3039 3049 3052 3055 3064 3069 3070 3070 3071 3067 3065 3064 3066 3070 3072 3075 3076 3075 3074 3074 3075 3076 3076 3076 3076 3076 3075 3076 3075 3075 3076 3074 3073 3072 3071 3070 3067 3065 3061 3060 3059
3021 3024 3028 3033 3033 3040 3050 3053 3058 3065 3065 3064 3067 3063 3060 3061 3068 3070 3072 3074 3074 3073 3074 3075 3075 3074 3075 3076 3076 3075 3075 3075 3076 3076 3075 3074 3074 3073 3072 3070 3068 3063 3062 3063
3007 3016 3020 3020 3027 3036 3044 3048 3052 3057 3060 3059 3059 3061 3059 3063 3067 3070 3069 3072 3072 3073 3073 3074 3074 3073 3074 3075 3075 3075 3075 3075 3076 3075 3075 3075 3075 3075 3076 3074 3072 3070 3069 3068
3003 3011 3014 3015 3024 3028 3037 3043 3048 3052 3056 3056 3058 3058 3058 3060 3065 3068 3067 3069 3071 3072 3072 3073 3073 3073 3074 3075 3075 3076 3075 3076 3076 3076 3076 3075 3076 3077 3078 3077 3076 3074 3072 3073
2999 3000 3005 3004 3009 3020 3028 3034 3039 3044 3048 3053 3052 3054 3056 3059 3063 3066 3065 3065 3068 3069 3071 3073 3073 3073 3073 3075 3076 3076 3076 3075 3077 3076 3076 3077 3077 3078 3079 3079 3080 3078 3077 3077
2990 2993 3000 3005 3009 3013 3020 3027 3032 3035 3041 3045 3050 3051 3053 3056 3060 3062 3063 3064 3066 3067 3068 3071 3072 3073 3073 3075 3076 3077 3077 3076 3077 3077 3077 3078 3079 3079 3081 3081 3082 3083 3082 3082
2981 2988 2998 3001 3004 3006 3011 3019 3026 3029 3035 3040 3045 3047 3051 3054 3054 3058 3059 3062 3066 3067 3068 3070 3071 3072 3073 3074 3076 3077 3077 3077 3078 3078 3078 3079 3080 3081 3083 3084 3085 3086 3087 3087
2973 2978 2990 2993 2999 3001 3001 3007 3016 3022 3027 3033 3036 3042 3047 3050 3053 3056 3056 3059 3063 3065 3067 3068 3069 3071 3072 3073 3075 3077 3077 3078 3079 3079 3079 3080 3081 3083 3084 3086 3088 3089 3090 3091
2966 2973 2984 2991 2996 2990 2996 3003 3011 3016 3022 3027 3032 3036 3041 3046 3050 3053 3055 3056 3058 3062 3064 3066 3068 3070 3071 3073 3074 3076 3078 3078 3079 3080 3081 3082 3083 3084 3086 3088 3091 3092 3094 3095
2961 2968 2977 2984 2986 2991 2994 2998 3004 3010 3015 3020 3025 3031 3036 3041 3046 3048 3052 3055 3054 3058 3061 3064 3066 3068 3070 3072 3074 3075 3077 3078 3079 3081 3081 3082 3083 3085 3087 3089 3092 3094 3096 3098
2959 2966 2976 2980 2982 2982 2988 2995 3001 3006 3007 3015 3020 3025 3030 3036 3039 3044 3047 3051 3051 3054 3058 3061 3063 3066 3068 3070 3073 3074 3076 3078 3079 3081 3082 3083 3084 3086 3088 3090 3092 3095 3097 3099
2958 2963 2967 2972 2976 2980 2985 2991 2997 2998 3007 3010 3014 3019 3025 3030 3036 3041 3043 3048 3049 3050 3055 3058 3060 3063 3067 3068 3071 3073 3075 3077 3079 3080 3082 3083 3085 3087 3088 3090 3092 3094 3097 3099
2956 2961 2964 2971 2975 2978 2982 2989 2990 2995 3002 3004 3009 3014 3019 3026 3031 3035 3040 3044 3047 3048 3052 3055 3057 3060 3064 3067 3069 3071 3074 3076 3078 3080 3081 3083 3085 3087 3088 3090 3092 3094 3096 3099
2959 2960 2964 2966 2971 2977 2981 2986 2987 2992 2999 3001 3004 3010 3015 3021 3026 3031 3037 3040 3043 3046 3049 3052 3054 3057 3061 3065 3068 3070 3073 3075 3077 3079 3080 3082 3085 3086 3088 3090 3093 3094 3096 3099
2947 2954 2959 2961 2966 2976 2978 2983 2986 2992 2997 2999 3002 3007 3011 3017 3022 3027 3032 3035 3039 3043 3047 3049 3052 3052 3057 3062 3066 3069 3071 3073 3075 3078 3079 3081 3084 3086 3088 3090 3092 3095 3097 3099
2959 2957 2952 2950 2964 2969 2975 2982 2987 2991 2994 2997 3001 3004 3008 3013 3018 3023 3028 3030 3034 3038 3042 3045 3049 3051 3053 3059 3062 3065 3068 3071 3073 3075 3077 3079 3082 3084 3087 3090 3092 3094 3097 3099
2958 2952 2953 2958 2960 2967 2976 2973 2973 2989 2990 2993 2997 3002 3006 3010 3014 3019 3023 3026 3031 3034 3038 3041 3045 3049 3051 3053 3058 3061 3064 3067 3070 3072 3074 3076 3080 3083 3085 3088 3090 3092 3094 3096
Wind_Speed
25 32 40 38 41 35 29 28 30 27 21 13 22 27 21 20 25 29 30 27 25 26 26 25 17 20 18 18 18 22 20 18 14 17 14 14 12 12 12 17 18 13 6 7
29 42 35 30 30 32 33 31 30 25 22 21 21 22 21 26 31 28 25 23 23 25 26 27 22 18 17 16 16 20 18 15 13 16 12 14 14 15 14 14 16 19 4 7
42 38 30 30 30 33 33 33 29 28 22 22 22 23 24 29 23 21 22 20 15 23 22 25 22 17 17 15 15 17 16 14 11 13 14 17 17 16 14 13 13 12 7 8
40 32 32 33 35 31 34 29 27 23 21 21 19 20 24 22 22 15 14 16 19 22 22 21 18 18 16 14 15 15 14 13 9 10 14 16 18 18 12 13 11 8 11 6
50 37 37 38 34 33 33 25 24 20 23 22 21 21 26 19 23 16 5 9 19 19 16 17 18 16 14 13 15 14 13 10 7 8 13 19 19 14 19 11 7 4 12 3
38 33 34 39 32 29 29 24 19 19 21 18 21 23 26 24 8 2 7 10 14 17 18 22 20 14 12 12 14 13 12 8 7 9 11 16 15 17 15 7 5 6 6 4
36 42 38 34 36 29 29 22 18 13 15 12 23 24 28 14 14 8 9 6 10 15 22 19 14 11 10 11 12 12 10 6 7 9 11 14 14 21 14 14 11 7 8 4
40 34 44 39 37 36 33 28 20 11 11 17 27 24 8 6 7 7 7 7 10 18 21 16 10 10 9 11 10 12 7 5 7 8 9 12 13 13 15 13 15 12 9 8
39 44 34 40 35 32 31 38 29 25 22 17 12 14 14 13 6 8 8 9 12 18 17 10 10 9 11 8 8 9 6 6 6 6 8 10 9 8 11 13 13 9 6 10
35 30 36 36 33 32 34 31 26 27 15 13 14 18 8 13 5 10 8 6 8 12 9 10 7 10 10 7 7 7 4 5 7 5 6 9 7 7 9 12 16 8 7 10
47 27 31 35 47 37 36 34 31 24 25 11 9 12 13 12 11 7 6 8 3 6 10 8 9 10 8 5 5 5 3 4 4 4 5 6 5 5 9 14 18 10 9 13
53 25 31 42 40 40 35 38 30 23 21 18 16 5 11 11 7 6 13 6 1 4 11 9 10 8 7 4 3 2 2 3 2 2 4 4 4 4 7 12 16 18 8 10
51 47 24 29 40 39 36 38 37 28 19 23 16 17 12 12 12 8 10 9 3 2 12 10 8 8 6 5 2 3 2 2 1 3 2 2 3 3 4 8 11 14 15 12
50 42 45 24 35 42 42 39 38 36 29 24 24 19 15 13 12 11 11 12 7 2 10 11 7 9 6 5 4 2 2 2 1 2 1 1 1 2 2 8 9 10 18 16
51 52 39 37 33 40 38 37 38 40 36 32 28 22 18 17 12 12 16 13 14 10 12 16 7 8 7 5 5 3 2 1 1 2 2 3 2 1 3 9 11 11 15 16
46 49 40 39 36 39 39 37 36 39 36 31 28 25 19 14 9 14 18 15 15 17 20 16 12 8 9 5 4 3 1 1 2 0 3 3 4 3 6 11 12 13 13 14
39 48 47 32 34 33 38 40 37 37 37 35 33 27 20 16 17 14 20 13 15 18 20 20 13 11 5 7 6 4 3 2 0 2 3 5 5 6 6 11 13 11 11 10
23 47 43 32 30 27 28 33 33 34 33 33 31 25 26 22 14 16 16 13 17 17 18 23 19 16 11 7 9 7 6 4 3 2 4 5 6 6 7 10 13 10 6 6
23 44 30 35 30 24 34 30 33 33 33 30 29 28 23 22 20 21 16 17 21 17 20 22 24 20 16 13 8 10 9 6 6 5 3 4 6 6 6 8 10 10 8 5
18 40 37 31 23 21 30 33 23 26 30 28 28 26 27 24 23 21 21 17 22 16 19 18 24 23 16 17 12 10 12 9 7 7 6 4 5 6 7 7 8 8 8 7
30 40 37 31 18 25 33 23 31 27 22 28 27 29 26 27 25 19 16 18 20 17 18 18 23 19 7 7 15 10 12 12 9 8 10 8 6 6 8 9 9 10 12 11
28 36 32 34 24 15 21 28 32 28 25 15 31 28 28 25 24 26 14 19 20 20 17 18 23 26 13 11 10 8 8 12 13 10 11 12 10 8 8 8 9 9 9 9
15 17 30 28 33 16 13 24 19 19 22 14 28 30 28 26 24 25 16 18 18 18 17 19 22 28 21 15 13 10 9 10 16 15 13 14 13 12 11 11 10 10 10 11
22 16 14 18 20 29 24 13 19 18 19 16 19 21 25 26 24 23 26 20 22 16 19 22 22 26 25 18 16 15 16 12 14 18 17 13 15 16 14 14 12 11 10 10
9 14 14 11 12 18 25 18 20 20 25 22 18 16 22 22 22 23 22 23 21 18 22 26 25 26 26 20 19 19 21 19 16 17 21 16 14 17 16 15 13 12 11 11
21 8 16 10 8 21 20 18 20 27 27 23 25 20 19 22 21 21 22 20 17 17 22 24 27 26 26 21 22 20 23 24 20 17 19 21 17 17 16 18 18 18 16 17
Wind_Direction
217 216 220 221 226 233 240 248 247 259 267 257 245 252 258 266 275 275 280 277 274 261 257 271 273 277 291 288 293 316 328 333 336 332 340 351 345 342 350 352 8 355 263 223
217 224 223 227 229 230 238 247 255 264 270 271 271 267 269 277 276 276 279 274 271 250 248 274 275 273 287 282 290 316 325 333 333 341 357 4 346 338 334 345 359 1 278 214
217 225 223 225 226 227 234 241 250 259 267 264 271 270 268 279 286 276 273 270 262 237 257 279 278 276 279 277 295 311 323 328 329 343 344 355 340 336 330 330 345 349 343 217
227 227 223 224 226 225 233 235 243 253 265 268 268 288 278 288 281 272 262 264 240 248 262 280 284 277 270 272 295 306 319 321 326 328 351 352 341 337 343 333 339 351 350 185
226 220 223 224 226 226 233 237 243 246 251 261 267 270 277 286 282 260 278 275 249 238 267 282 292 278 260 272 294 302 311 314 325 309 337 349 347 344 333 340 335 18 24 173
231 224 224 226 229 228 229 235 242 247 254 251 255 260 273 271 293 256 288 281 231 237 275 282 286 265 254 274 288 297 304 308 314 305 332 347 5 12 11 23 54 29 24 62
221 225 224 224 225 224 219 220 225 228 238 252 256 248 251 269 280 282 274 271 245 256 277 284 286 242 264 276 286 294 299 300 304 308 332 346 3 7 23 44 31 16 14 70
217 221 218 214 222 217 208 211 218 226 223 245 243 242 247 195 191 236 251 241 237 262 278 287 232 243 275 274 283 292 305 294 303 307 334 341 6 11 24 34 42 28 42 94
209 226 218 216 215 214 208 213 219 243 249 283 278 231 218 216 213 226 223 224 241 264 280 261 222 258 274 271 287 288 298 294 295 310 327 338 355 5 18 26 28 62 61 86
218 218 218 213 211 212 213 209 210 230 244 266 276 274 241 159 199 173 199 215 270 289 254 208 251 281 260 269 288 295 288 286 277 305 321 332 347 9 26 30 23 56 97 106
215 226 216 210 206 202 207 219 207 225 226 226 243 260 264 170 174 179 220 207 282 268 212 243 281 270 244 259 299 299 285 275 283 289 309 324 346 359 32 31 21 75 104 116
209 225 234 211 208 209 212 213 203 214 221 244 246 248 154 152 180 191 166 197 13 261 224 260 286 245 233 232 309 333 322 261 295 291 296 318 337 352 37 39 33 81 93 123
206 221 226 223 213 198 211 216 216 215 219 217 233 244 209 185 182 192 176 194 110 356 226 245 278 232 223 217 264 1 15 243 208 281 310 313 333 358 41 61 50 47 63 118
206 214 219 218 200 190 199 213 215 216 218 224 233 240 191 159 193 211 216 204 210 299 220 226 258 227 226 217 245 319 17 286 191 254 291 148 21 348 50 86 84 78 67 114
202 211 217 220 218 203 205 211 216 217 218 222 225 233 213 210 207 217 205 202 206 210 217 217 233 231 233 223 243 270 1 315 329 222 210 155 120 47 120 108 100 103 98 102
200 211 213 214 221 215 209 213 218 221 219 219 226 229 226 227 216 200 203 206 202 215 207 217 231 230 230 217 225 238 230 13 22 59 167 161 137 127 123 126 120 121 122 120
194 201 207 222 214 225 210 208 213 220 222 216 219 222 221 223 219 207 190 226 203 208 206 225 234 222 219 226 210 226 204 164 82 91 134 156 156 136 131 146 138 131 124 122
209 200 204 217 216 227 225 208 214 220 222 221 223 222 218 218 214 211 218 214 202 210 209 226 233 227 208 238 219 214 223 187 184 146 123 151 164 161 154 149 150 145 136 122
218 193 199 210 217 222 216 213 205 211 219 216 217 218 216 214 223 225 224 225 227 205 216 221 236 238 225 227 246 223 228 209 197 198 151 156 168 173 178 166 160 166 168 168
216 196 200 201 221 224 214 210 208 211 225 213 214 215 215 214 218 225 221 220 213 233 203 215 228 240 238 230 242 235 222 226 209 203 198 172 190 185 188 192 182 184 187 193
219 194 210 228 228 213 213 202 202 209 227 216 213 210 209 214 215 211 230 208 219 206 202 206 225 233 216 218 223 230 223 220 220 209 209 198 189 195 198 195 193 193 196 196
225 189 209 222 229 221 206 212 214 210 212 220 211 208 210 210 212 204 200 201 208 201 198 209 221 227 208 214 172 181 216 219 222 222 217 215 196 198 203 202 198 198 204 203
256 190 216 212 215 216 204 215 207 205 208 217 206 207 210 209 203 202 200 192 177 194 208 213 213 223 212 220 217 204 177 215 220 225 227 222 207 205 199 201 199 199 199 195
245 257 232 204 216 224 215 214 196 188 180 179 184 188 199 201 199 202 205 213 208 202 204 214 207 225 227 217 223 219 219 214 229 226 231 231 209 217 205 204 202 202 205 204
291 272 233 223 204 227 200 208 208 184 187 192 181 179 184 185 193 198 200 210 214 206 206 212 204 220 235 221 230 228 224 217 229 236 235 234 216 218 217 214 209 210 207 211
248 301 204 234 148 194 216 204 177 193 191 186 184 179 187 185 187 185 194 209 202 194 195 202 203 209 232 236 231 236 230 225 225 237 241 236 229 226 219 219 217 215 210 215